Location: Au
(47.3167°N, 9.6000°E)
Time: 16:18:52
(UTC+00:00)

Daily predictions for brighter satellites

Satellite Brightness Start Highest point End
(mag) Time Altitude Azimuth Time Altitude Azimuth Time Altitude Azimuth
Meteor 1-21 Rocket 4.4 19:50:25 10° S 19:56:14 65° E 20:02:07 10° NNE
USA 267 4.3 19:50:42 10° E 19:56:51 45° NNE 20:03:01 10° NW
SPOT 1/Viking Rocket 4.2 19:52:14 10° SE 19:57:02 41° ENE 20:01:53 10° N
Alouette 2 Rocket 4.3 19:57:21 10° N 20:00:56 38° ENE 20:05:33 10° SE
Cosmos 2322 Rocket 2.4 19:56:01 10° SSW 20:01:38 79° WNW 20:07:18 10° NNE
SL-08 ROCKET BODY 4.4 19:56:45 10° S 20:02:39 70° E 20:08:41 10° NNE
SPOT 3 Rocket 4.3 19:57:59 10° S 20:03:04 53° W 20:08:11 10° NNW
NOSS 7 (D) 3.8 20:00:55 10° SSW 20:03:43 57° SE 20:06:22 10° NE
Cosmos 2237 4.3 19:58:42 10° SSW 20:04:22 65° ESE 20:10:04 10° NNE
Cosmos 1328 4.4 20:03:07 10° SSE 20:06:49 38° E 20:10:31 10° NNE
Cosmos 1455 2.2 20:08:15 10° N 20:12:07 87° ENE 20:15:58 10° S
Cosmos 1825 Rocket 3.8 20:11:49 10° S 20:16:07 52° E 20:20:28 10° NNE
ATLAS CENTAUR R/B 2.5 20:15:25 10° NNW 20:18:41 28° NE 20:21:53 10° ESE
Cosmos 1703 3.3 20:16:52 10° S 20:20:41 62° E 20:24:32 10° NNE
COSMOS 2428 3.6 20:16:55 10° SSE 20:21:42 29° ESE 20:26:29 10° NE
Cosmos 1812 Rocket 4.2 20:18:05 10° NNW 20:22:20 54° W 20:26:33 10° S
Cosmos 1844 3.8 20:18:18 10° NNW 20:24:07 78° ENE 20:29:32 12° SSE
Cosmos 2322 3.9 20:19:57 10° S 20:25:27 50° ESE 20:30:58 10° NE
Cosmos 783 Rocket 4.5 20:26:22 10° SSW 20:31:36 77° ESE 20:36:50 10° NNE
Cosmos 2263 Rocket 4.5 20:28:16 10° WNW 20:31:54 18° W 20:35:31 10° SW
Cosmos 1709 Rocket 4.1 20:26:02 10° S 20:32:14 67° E 20:38:33 10° NNE
Nadezhda 1 Rocket 4.5 20:26:36 10° NNW 20:32:57 65° W 20:39:14 10° S
NOSS 3-3 (A) 4.4 20:28:37 10° S 20:33:56 38° ESE 20:39:49 10° NE
NOSS 3-3 (C) 4.4 20:28:44 10° S 20:34:03 38° ESE 20:39:57 10° NE
Atlas Centaur 2 3.9 20:31:41 10° SW 20:35:35 17° S 20:38:47 13° SSE
Terra 2.6 20:31:40 13° SE 20:35:36 39° ENE 20:40:02 10° N
Cosmos 2237 Rocket 3.9 20:33:12 12° SE 20:35:40 15° E 20:38:45 10° ENE
CARTOSAT-1 3.8 20:32:57 13° SSE 20:36:41 58° ENE 20:40:56 10° N
Cosmos 2333 4.3 20:31:41 10° S 20:37:12 59° ESE 20:42:49 10° NNE
Cosmos 2219 Rocket 2.6 20:32:26 10° S 20:37:39 42° ESE 20:42:53 10° NE
Cosmos 2360 Rocket 2.5 20:33:52 10° SSW 20:39:31 75° WNW 20:45:13 10° NNE
IGS 5A 3.7 20:35:45 10° S 20:39:52 68° WSW 20:44:03 10° NNW
Cosmos 2333 Rocket 2.4 20:41:53 10° S 20:47:23 54° ESE 20:52:57 10° NE
ATLAS 2AS CENTAUR R/B 3.9 20:44:09 10° NW 20:51:22 40° NNE 20:58:03 10° ESE
Cosmos 1315 Rocket 3.2 20:47:23 10° N 20:51:25 52° ENE 20:54:13 18° SSE
Resurs 01 Rocket 3.7 20:48:21 10° SSW 20:51:55 24° W 20:55:29 10° NW
Cosmos-2242 3.6 20:50:37 10° NNW 20:54:52 55° W 20:59:05 10° S
Cosmos 1818 4.0 20:49:31 10° SW 20:54:55 65° NW 21:00:22 10° NNE
Cosmos 773 Rocket 4.0 20:52:08 10° SSW 20:57:27 83° ESE 21:02:46 10° NNE
SL-16 R/B 4.4 20:53:56 10° WSW 20:58:51 29° NW 21:03:47 10° NNE
Cosmos 2221 3.3 20:55:45 10° N 20:59:52 38° ENE 21:02:29 19° SE
ERS-1 Rocket 3.0 20:56:51 15° S 21:01:08 81° WSW 21:06:13 10° NNW
GEOS 3 Rocket 3.9 20:57:57 10° NE 21:03:23 79° NW 21:08:45 10° SW
USA 215 3.2 21:00:10 10° ENE 21:06:42 66° SE 21:13:12 10° SW
Cosmos 1892 4.1 21:07:01 20° ESE 21:08:20 24° E 21:11:24 10° NE
Cosmos 2278 Rocket 2.7 21:03:30 10° NNW 21:09:02 50° ENE 21:13:09 18° SE
ATLAS 5 CENTAUR R/B 2.5 21:07:35 10° WSW 21:11:40 51° NW 21:16:19 10° NNE
Meteor 1-11 4.3 21:06:21 10° SSW 21:11:59 80° WNW 21:17:43 10° N
Cosmos 1844 Rocket 3.7 21:08:35 10° NW 21:13:41 37° WSW 21:18:16 12° S
Cosmos 1400 Rocket 4.3 21:10:37 10° NNW 21:14:09 31° W 21:17:38 10° SSW
Gblst 52 Del rocket 4.3 21:09:19 10° WNW 21:15:01 90° SSW 21:20:33 14° ESE
SPOT 5 3.2 21:13:56 17° S 21:17:52 66° WSW 21:22:40 10° NNW
SL-16 R/B 4.1 21:18:56 11° ESE 21:20:05 12° E 21:22:13 10° ENE
Lacrosse 5 rocket 4.0 21:17:30 10° NW 21:20:43 21° N 21:23:48 10° NE
USA 81 4.3 21:19:52 11° SSW 21:24:51 70° W 21:30:09 10° N
Cosmos 2058 3.5 21:25:00 26° SE 21:26:44 39° E 21:30:37 10° NNE
Cosmos 2154 Rocket 4.5 21:23:04 21° SSE 21:26:47 44° E 21:32:37 10° NNE
BREEZE M DEB (TANK) 3.2 21:26:02 10° W 21:27:39 22° SW 21:27:39 22° SW
Cosmos 2181 Rocket 4.4 21:22:51 10° NNW 21:29:06 62° W 21:34:15 15° S
Cosmos 1408 3.9 21:29:06 22° ESE 21:29:48 24° E 21:32:44 10° NE
In-Cosmos 22 Rocket 4.2 21:29:55 23° SSE 21:33:04 56° E 21:38:16 10° NNE
Cosmos 2074 Rocket 4.0 21:29:16 18° S 21:34:01 77° E 21:40:15 10° NNE
TSX-5 3.8 21:32:15 10° NNW 21:35:43 66° ENE 21:37:36 29° SE
Cosmos 1076 Rocket 3.9 21:36:08 29° SSE 21:37:55 47° E 21:42:02 10° NNE
Cosmos 1680 Rocket 4.0 21:35:42 25° SSE 21:38:19 43° ESE 21:43:21 10° NE
USA 267 3.3 21:34:04 16° ESE 21:39:30 86° NE 21:46:06 10° NW
Cosmos 2084 3.9 21:41:55 10° NW 21:46:14 51° SW 21:48:05 30° S
Cosmos 1842 Rocket 3.9 21:42:24 10° NNW 21:46:42 59° W 21:49:02 25° SSW
JB-3 4.2 21:44:10 10° NNE 21:48:02 85° WNW 21:49:57 28° SSW
Cosmos 2151 4.2 21:47:18 24° ESE 21:48:27 27° E 21:52:05 10° NNE
MTI 4.0 21:48:56 10° N 21:51:59 61° WNW 21:53:10 32° SW
Cosmos 923 Rocket 3.9 21:52:20 22° SSW 21:55:46 78° ESE 22:01:05 10° NNE
Cosmos 2327 Rocket 4.4 21:52:14 24° S 21:56:12 78° E 22:02:21 10° N
ATLAS CENTAUR R/B 2.1 21:54:16 10° NW 21:57:34 31° WSW 21:58:26 28° SSW
Cosmos 1825 2.9 21:58:08 33° ESE 21:58:51 36° E 22:02:21 10° NNE
ALOS 2 3.8 21:58:03 22° ESE 22:00:02 32° ENE 22:03:56 10° N
Cosmos 1980 3.6 21:56:54 22° SSW 22:00:37 71° ESE 22:06:15 10° NNE
Cosmos 2369 Rocket 4.4 21:57:09 10° N 22:00:56 18° NE 22:04:42 10° E
Cosmos 967 Rocket 4.5 21:56:26 10° SSW 22:02:55 88° SE 22:09:26 10° NE
Cosmos 44 4.3 22:05:15 24° ESE 22:05:15 24° ESE 22:08:39 10° ENE
COSMOS 2428 3.5 22:00:11 10° SW 22:05:41 51° WNW 22:11:14 10° NNE
Cosmos 1869 4.3 22:03:52 10° NNW 22:07:36 40° W 22:09:22 25° SW
Cosmos 1295 Rocket 4.4 22:06:31 28° S 22:09:55 72° E 22:16:01 10° NNE
GP-B 4.2 22:06:06 10° NNE 22:10:04 31° E 22:11:23 26° ESE
NOSS 0 Rocket 3.9 22:07:31 13° SSW 22:13:01 83° WNW 22:19:14 10° NNE
Terra 3.4 22:10:33 16° SW 22:13:26 27° W 22:17:30 10° NW
Cosmos 1624 Rocket 4.1 22:09:18 10° NNW 22:14:32 70° ENE 22:16:57 32° SE
NOSS 3-4 (A) 3.8 22:07:59 10° NW 22:14:58 88° SW 22:19:47 25° SE
NOSS 3-4 (C) 3.8 22:08:05 10° NW 22:15:05 89° SW 22:19:55 25° SE
Cosmos 2237 Rocket 2.2 22:14:58 21° SSW 22:18:53 90° SSE 22:24:38 10° NNE
SL-4 R/B 3.6 22:19:54 10° NE 22:19:54 10° NE 22:19:55 10° NE
Genesis I 3.1 22:18:36 46° S 22:19:36 68° SE 22:23:29 10° NE
Cosmos 2344 3.5 22:16:02 19° SSW 22:21:34 64° ESE 22:29:26 10° NE
Cosmos 2219 Rocket 3.6 22:16:32 10° WSW 22:21:40 36° NW 22:26:51 10° NNE
Elektron 1 4.4 22:21:21 27° SW 22:23:04 84° NW 22:28:33 10° NE
Atlas Centaur 2 4.4 22:20:05 10° SW 22:21:21 13° SW 22:21:21 13° SW
DELTA 2 R/B (1) 4.0 22:24:51 10° SW 22:29:54 36° S 22:30:03 36° SSE
Thor Agena Rocket 3.5 22:25:34 10° NNE 22:30:42 80° WNW 22:33:18 30° SSW
Cosmos 2333 Rocket 4.0 22:26:57 10° WSW 22:31:57 31° NW 22:37:01 10° NNE
Cosmos 2221 4.4 22:33:48 10° NW 22:37:11 22° W 22:39:20 16° SW
Iridium 2 4.4 22:37:47 10° NNW 22:41:28 45° W 22:42:26 36° SW
BREEZE-M DEB (TANK) 1.4 22:38:04 10° WNW 22:41:22 71° W 22:41:22 71° W
Cosmos 1371 Rocket 4.2 22:37:03 10° NNW 22:42:16 63° WSW 22:44:15 37° S
ATLAS 2AS CENTAUR R/B 2.8 22:35:23 10° NW 22:42:53 69° WSW 22:46:25 31° SSE
EO 1 Del DPAF 3.7 22:40:05 10° N 22:43:47 55° WNW 22:44:59 36° SW
Cosmos 1892 4.4 22:42:00 18° WSW 22:43:55 27° WNW 22:47:11 10° NNW
Cosmos 1766 Rocket 3.5 22:44:24 47° SSE 22:45:33 71° E 22:49:58 10° NNE
MOS 1-B Rocket 4.5 22:37:49 10° NNE 22:45:38 79° WNW 22:49:56 25° SSW
Gbstr 26 Del rocket 4.3 22:49:28 22° E 22:49:28 22° E 22:51:31 10° ENE
Okean 3 Rocket 3.5 22:47:02 45° S 22:48:23 87° E 22:52:50 10° N
Cosmos 1328 Rocket 3.6 22:44:57 10° N 22:49:16 67° E 22:50:25 45° SE
Aureole 2 Rocket 2.2 22:46:29 10° NNW 22:48:59 66° NW 22:48:59 66° NW
USA 215 4.0 22:43:17 10° NE 22:49:39 55° NNW 22:56:00 10° W
Cosmos 1606 2.6 22:47:42 10° N 22:51:37 89° WNW 22:52:19 59° S
Cosmos 2278 Rocket 3.4 22:48:03 10° NW 22:52:52 29° WSW 22:54:59 23° SW
Cosmos 2218 Rocket 4.1 22:50:54 33° SSE 22:53:50 70° E 23:00:07 10° NNE
Cosmos 2297 3.7 22:48:54 10° NNW 22:54:41 89° WSW 22:57:11 36° SSE
Cosmos 1420 Rocket 4.0 22:53:12 10° NNW 22:58:30 86° ENE 23:00:36 38° SSE
Cosmos 2366 rocket 4.0 22:56:35 34° S 22:59:31 73° E 23:05:52 10° NNE
Lacrosse 5 rocket 3.1 22:57:18 10° NW 23:00:53 29° NNE 23:04:17 10° E
Cosmos 1943 Rocket 2.7 22:55:44 10° NNW 23:01:19 54° ENE 23:04:40 23° SE
Cosmos 1633 3.6 23:01:11 32° E 23:01:23 33° E 23:04:39 10° NNE
SL-16 R/B 2.1 23:00:46 36° SSW 23:03:12 77° ESE 23:08:55 10° NNE
Cosmos 1408 4.4 23:03:24 19° WSW 23:04:45 23° WNW 23:07:41 10° NNW
Cosmos 2056 Rocket 4.1 23:00:58 10° NNW 23:06:08 47° WSW 23:07:58 34° SSW
Cosmos 1959 Rocket 4.4 23:06:20 35° S 23:09:07 87° E 23:15:22 10° N
YAOGAN 11 4.3 23:09:09 40° SE 23:10:31 62° ENE 23:14:54 10° N
Cosmos 1743 Rocket 4.2 23:12:36 37° SE 23:13:31 42° E 23:17:38 10° NNE
Cosmos 2341 Rocket 4.4 23:11:46 26° SW 23:15:16 55° WNW 23:21:22 10° N
Cosmos 332 Rocket 3.7 23:15:03 10° NNW 23:19:53 86° ENE 23:21:28 43° SSE
Cosmos 1048 Rocket 4.5 23:19:32 36° SSE 23:21:05 47° ESE 23:26:07 10° NNE
USA 267 4.0 23:21:24 29° SSW 23:22:59 32° SW 23:28:45 10° WNW
Meteor 2-3 Rocket 3.7 23:21:02 38° S 23:23:20 89° E 23:29:05 10° NNE
Cosmos 2151 4.4 23:23:52 22° WSW 23:25:40 30° WNW 23:29:27 10° N
Helios 1A 2.9 23:24:53 54° S 23:25:45 74° WSW 23:29:56 10° NNW
Cosmos 405 3.0 23:25:15 10° N 23:28:48 70° ENE 23:29:08 64° ESE
Meteor 1-26 Rocket 4.4 23:26:55 10° NNW 23:32:54 70° W 23:35:20 37° S
Cosmos 1452 Rocket 3.5 23:28:02 10° NNW 23:33:18 73° WSW 23:35:06 42° S
SL-8 Rocket 4.4 23:30:59 27° SW 23:34:13 52° WNW 23:40:15 10° N
CZ-4C R/B 3.4 23:27:28 10° NW 23:34:24 60° NE 23:42:27 10° ESE
Cosmos 1825 4.3 23:32:56 15° W 23:34:31 18° WNW 23:37:12 10° NNW
Cosmos 1340 3.1 23:34:23 44° WSW 23:35:04 51° WNW 23:38:46 10° N
COSMOS 2455 2.8 23:29:15 10° NW 23:35:20 86° SW 23:38:24 31° SSE
PSLV R/B 3.9 23:31:33 10° NNE 23:35:40 51° E 23:36:34 43° SE
ALOS 2 3.8 23:35:27 27° WSW 23:36:22 29° W 23:40:12 10° NW
Cosmos 1408 Rocket 3.9 23:35:56 41° SW 23:37:11 57° WNW 23:41:33 10° N
Cosmos 1933 4.2 23:33:53 10° NNW 23:37:35 36° W 23:38:13 34° WSW
SL-16 R/B 4.3 23:33:00 10° ESE 23:38:04 27° ENE 23:43:09 10° N
Cosmos 1603 4.3 23:36:25 33° SSE 23:38:15 43° ESE 23:43:37 10° NE
Cosmos 1151 Rocket 4.0 23:35:11 10° NNW 23:39:08 35° W 23:40:03 31° WSW
Cosmos 1727 Rocket 4.1 23:39:07 10° NNW 23:45:19 67° W 23:48:04 34° SSW
APEX 4.0 23:42:47 10° NW 23:44:21 27° WNW 23:44:21 27° WNW
Cosmos 2369 Rocket 2.2 23:40:16 10° NNW 23:45:54 80° ENE 23:48:49 30° SSE
Resurs 1-4 Rocket 4.2 23:42:34 10° NE 23:45:57 17° E 23:48:44 12° ESE
Cosmos 1500 Rocket 3.5 23:44:49 50° S 23:45:57 88° E 23:50:22 10° N
Cosmos 44 3.9 23:43:38 23° WSW 23:46:02 46° NW 23:50:21 10° NNE
ISS -1.3 23:51:00 14° E 23:51:00 14° E 23:51:42 10° E
Cosmos 371 Rocket 4.0 23:44:57 10° NW 23:49:26 38° WSW 23:50:25 34° SW
SeaSat 1 4.0 23:46:11 10° NE 23:50:01 22° ESE 23:51:20 20° SE
Helios 1B rocket 2.5 23:50:21 10° NNE 23:54:29 67° ESE 23:55:23 50° SSE
CREW DRAGON DEMO-1 DEB 4.0 23:54:48 19° WNW 23:56:40 42° NNW 23:59:38 10° ENE
